This demonstration page uses our WeatherBlox Daily Observations layout. Learn more.

Left ArrowRight Arrow

39.08367, -84.50855

Hourly Observations for June 7, 2015

Temp ( °F °C ) Dew Point ( °F °C ) Humidity (%) Winds ( mph kmh ) Pressure ( in mb ) Visibility ( mi km ) Precip ( " mm )
12:08 am 00:08 Clear with Mist and Fog 63 17 61 16 94 94 N N/A 30 1016 3 4.82802 N/A
12:34 am 00:34 Clear with Mist and Fog 62 16.7 62 16.7 100 100 N N/A 30 1016 2.5 4.02335 N/A
12:53 am 00:53 Clear with Mist and Fog 60 15.6 60 15.6 100 100 N N/A 30.02 1017 1.25 2.011675 N/A
1:01 am 01:01 Clear with Mist and Fog 61 16.1 60 15.6 97 97 N N/A 30 1016 3 4.82802 N/A
1:19 am 01:19 Clear with Mist and Fog 60 15.6 59 15 96 96 N N/A 30 1016 1.5 2.41401 N/A
1:21 am 01:21 Mostly Cloudy with Mist and Fog 60 15.6 59 15 96 96 N N/A 30 1016 0.75 1.207005 N/A
1:37 am 01:37 Mostly Clear with Mist and Fog 61 16.1 60 15.6 97 97 N N/A 30 1016 1.25 2.011675 N/A
1:39 am 01:39 Mostly Cloudy with Mist and Fog 60 15.6 60 15.6 100 100 N N/A 30 1016 0.75 1.207005 N/A
1:53 am 01:53 Mostly Cloudy with Fog 59 15 59 15 100 100 N N/A 30.01 1016 0.5 0.80467 N/A
2:00 am 02:00 Mostly Clear with Mist and Fog 61 16 61 16 100 100 N N/A 30 1016 1.25 2.011675 N/A
2:04 am 02:04 Mostly Clear with Mist and Fog 61 16 59 15 94 94 N N/A 29.97 1015 3 4.82802 N/A
2:12 am 02:12 Mostly Clear with Mist and Fog 59 15 59 15 100 100 N N/A 29.97 1015 2 3.21868 N/A
2:30 am 02:30 Clear with Mist and Fog 59 15 59 15 100 100 N N/A 29.97 1015 0.75 1.207005 N/A
2:42 am 02:42 Clear with Mist and Fog 61 16 61 16 100 100 N N/A 29.97 1015 2 3.21868 N/A
2:53 am 02:53 Clear with Mist and Fog 58 14.4 58 14.4 100 100 N N/A 30 1016 2.5 4.02335 N/A
3:26 am 03:26 Mostly Cloudy with Mist and Fog 59 15 59 15 100 100 N N/A 30 1016 1 1.60934 N/A
3:38 am 03:38 Mostly Clear with Mist and Fog 59 15 59 15 100 100 N N/A 30 1016 2 3.21868 N/A
3:44 am 03:44 Mostly Cloudy with Mist and Fog 59 15 59 15 100 100 N N/A 30 1016 1 1.60934 N/A
3:49 am 03:49 Mostly Cloudy with Fog 57 14 57 14 100 100 N N/A 30.03 1017 0.25 0.402335 N/A
3:53 am 03:53 Mostly Cloudy with Fog 58 14.4 57 13.9 97 97 N N/A 30.01 1016 0.25 0.402335 N/A
4:08 am 04:08 Mostly Cloudy with Mist and Fog 57 14 57 14 100 100 NNE 3 6 30.03 1017 1 1.60934 N/A
4:12 am 04:12 Partly Cloudy with Mist and Fog 57 14 57 14 100 100 NE 3 6 30.03 1017 2 3.21868 N/A
4:22 am 04:22 Mostly Cloudy with Mist and Fog 57 14 57 14 100 100 N N/A 30.03 1017 1.75 2.816345 N/A
4:30 am 04:30 Mostly Cloudy with Mist and Fog 57 14 57 14 100 100 N N/A 30.03 1017 0.75 1.207005 N/A
4:40 am 04:40 Mostly Cloudy with Fog 59 15 59 15 100 100 N N/A 29.97 1015 0.25 0.402335 N/A
4:53 am 04:53 Mostly Cloudy with Fog 60 15.6 56 13.3 86 86 N N/A 30.01 1016 0.25 0.402335 N/A
5:16 am 05:16 Mostly Cloudy with Fog 57 14 57 14 100 100 N N/A 30 1016 0.25 0.402335 N/A
5:53 am 05:53 Mostly Cloudy with Fog 59 15 59 15 100 100 N N/A 30.01 1016 5 8.0467 N/A
6:53 am 06:53 Mostly Cloudy with Fog 59 15 59 15 100 100 N N/A 30.01 1016 5 8.0467 N/A
7:42 am 07:42 Mostly Cloudy with Fog 61 16 61 16 100 100 N N/A 29.97 1015 0.5 0.80467 N/A
7:53 am 07:53 Mostly Cloudy with Fog 61 16.1 61 16.1 100 100 N N/A 30.01 1016 0.25 0.402335 N/A
8:09 am 08:09 Mostly Cloudy with Fog 61 16.1 61 16.1 100 100 N N/A 30 1016 0.25 0.402335 N/A
8:24 am 08:24 Cloudy with Fog 63 17 63 17 100 100 N N/A 30 1016 0.5 0.80467 N/A
8:50 am 08:50 Cloudy with Mist and Fog 63 17 63 17 100 100 N N/A 29.97 1015 1.25 2.011675 N/A
8:53 am 08:53 Cloudy with Mist and Fog 63 17.2 63 17.2 100 100 N N/A 30.01 1016 1.25 2.011675 N/A
9:07 am 09:07 Mostly Cloudy with Mist and Fog 64 17.8 64 17.8 100 100 SW 5 7 29.97 1015 2.5 4.02335 N/A
9:13 am 09:13 Partly Cloudy with Mist and Fog 65 18.3 64 17.8 97 97 SW 3 6 29.97 1015 3 4.82802 N/A
9:53 am 09:53 Sunny with Mist and Fog 69 20.6 65 18.3 87 87 S 5 7 29.99 1016 5 8.0467 N/A
10:53 am 10:53 Sunny 75 23.9 66 18.9 74 74 S 10 17 29.97 1015 7 11.26538 N/A
11:53 am 11:53 Sunny 78 25.6 66 18.9 67 67 SSW 10 17 29.96 1015 10 16.0934 N/A
12:53 pm 12:53 Partly Cloudy 82 27.8 67 19.4 60 60 SW 10 17 29.96 1014 10 16.0934 N/A
1:53 pm 13:53 Partly Cloudy 85 29.4 68 20 57 57 SSW 16 26 29.93 1014 10 16.0934 N/A
2:53 pm 14:53 Partly Cloudy 86 30 68 20 55 55 SW 8 13 29.92 1013 10 16.0934 N/A
3:53 pm 15:53 Mostly Sunny 87 30.6 67 19.4 51 51 SSW 16 26 29.9 1012 10 16.0934 N/A
4:53 pm 16:53 Mostly Sunny 86 30 67 19.4 53 53 SW 15 24 29.87 1012 10 16.0934 N/A
5:53 pm 17:53 Sunny 86 30 66 18.9 51 51 SW 13 20 29.87 1011 10 16.0934 N/A
6:53 pm 18:53 Sunny 85 29.4 66 18.9 53 53 SSW 12 19 29.83 1010 10 16.0934 N/A
7:53 pm 19:53 Sunny 83 28.3 66 18.9 57 57 SSW 8 13 29.85 1011 10 16.0934 N/A
8:53 pm 20:53 Sunny 77 25 66 18.9 69 69 S 7 11 29.85 1011 10 16.0934 N/A
9:53 pm 21:53 Clear 77 25 66 18.9 69 69 S 8 13 29.85 1011 10 16.0934 N/A
10:53 pm 22:53 Clear 75 23.9 65 18.3 71 71 SW 6 9 29.86 1011 10 16.0934 N/A
11:53 pm 23:53 Clear 73 22.8 66 18.9 79 79 SSW 7 11 29.86 1011 10 16.0934 N/A

Powered by AerisWeather